Showing default

YINHE-1, 45024

Orbit data source: Space-Track

YINHE-1, 45024 is a payload satellite owned by Yinhe (CN) in LEO that was launched on Thu, 16 Jan 2020 UTC via a KUAIZHOU-1A launch vehicle from the Jiuquan Satellite Launch Center, China (JSC). Payload-class satellites include a variety of spacecraft equipped with specific instruments for various scientific and technological missions. These include communications satellites like Starlink; space stations such as the ISS; scientific satellites like the Hubble; Earth observation satellites from companies like Planet Labs, Umbra, and HawkEye 360; GPS; miniature CubeSats for education and research; and military/defense satellites.

Loading next visibility...
Identifier
45024, 2020-004A
Orbit
LEO
Country
Flag of CNCN / PRC
Related business
Manufacturer
Yinhe
Mission
Operational Commercial Communications
Bus & Motor
YH, Unknown motor
Mass
227 kg wet, ~200 kg dry
Launch date (UTC)
2020-01-16 (6 years ago)
Launch vehicle
KUAIZHOU-1A
Launch site
Jiuquan Satellite Launch Center, China (JSC)
Object type
Payload
Rocket body
Debris
Shape & HBR
Box + 1 Pan, Unknown HBR
Radar Cross Section
3.313 m², Large (>1 m²)

Expand to show TLE details & history
Last TLE update: 5 hours ago

TLE from 5 hours ago
0 YINHE-1
1 45024U 20004A   26037.15546367  .00001650  00000-0  21979-3 0  9999
2 45024  86.3988 174.3719 0015625  97.6369 262.6627 14.78955336326553
Epoch: 2026-02-06T03:43Z
TLE epoch observation values (Epoch: 2026-02-06T03:43:52.061Z)
Latitude
0.00002°
Longitude
-17.89242°
Altitude
637.154 km
Speed
7.539 km/s
True Right ascension
11h 37m 29s
True Declination
0° 00' 00"
Sunlit
Object was in full shadow at epoch
Visualization orbit readout
Latitude
Unknown
Longitude
Unknown
Altitude
Unknown
Speed
Unknown
Apparent Right ascension
Unknown
Apparent Declination
Unknown
Sunlit
N/A
Visualization observer readout
Local Sidereal Time
10:32:48
Azimuth
Unknown
Elevation
Unknown
Doppler factor
Unknown
Orbital elements
Apogee altitude
640.475 km
Perigee altitude
618.576 km
Semi-major axis
7,007.662 km
Eccentricity
0.00156
Inclination
86.3988°
RAAN
174.3719°
Arg. of periapsis
97.6369°
True anomaly
262.48516°
Mean anomaly
262.6627°
Eccentric anomaly
262.57393°
Mean motion
3.69984 °/min
Orbital period
97.3 mins
BSTAR
0.00021979
Loading maneuver chart data...
Computing Atmospheric mass density...
Loading historical data...
Loading historical data...
Loading historical data...
Loading historical data...
Loading historical data...
Loading historical data...
Loading historical data...
Other satellites on launch #4 in the year 2020 (2020-01-16 UTC)

Documentation

Showing up to 5 results
|